User: anonymous
Location: Harbor Island
(32.3990°N, 80.4435°W)
Time: 03:51:18
(UTC-04:00)
Language:

Cosmos 1455 - Orbit

View from above orbital plane
View from above orbital plane
View from above satellite
View from above satellite

Ground track
Ground track

The orbit data is extracted from the following two-line orbital elements,

1 14032U 83037A   14112.82693274  .00007408  00000-0  44349-3 0  5139
2 14032 082.5188 139.9895 0018474 308.0339 112.7156 15.10730653687092
Epoch (UTC): 22 April 2014 19:50:46
Eccentricity: 0.0018474
inclination: 82.5188°
perigee height: 521 km
apogee height: 547 km
right ascension of ascending node: 139.9895°
argument of perigee: 308.0339°
revolutions per day: 15.10730653
mean anomaly at epoch: 112.7156°
orbit number at epoch: 68709

The dashed part of the orbit path shows where the satellite is in the earth's shadow,  

DLR